星链-37680(STARLINK-37680)

导读

STARLINK-37680(NORAD编号69240)是美国SpaceX公司星链(StarLink)星座的一颗低轨互联网通信卫星,隶属于星链二代组网卫星。2025年12月,该卫星在轨道运行中突发异常,轨道高度骤降约4000米,推测因内部故障发生爆炸,与地面控制中心失联,并产生少量空间碎片。SpaceX官方称卫星大致保持完整但处于失控翻滚状态,预计几周内再入大气层烧毁。目前SpaceX正联合美国太空军、NASA监测碎片轨迹,由于脱落碎片数量有限,此次事故风险被评估为低于以往轨道事故。该事件再次引发国际社会对低轨星座大规模部署下空间碎片与轨道安全的讨论。(150字)

基本信息
目录编号:
69240
目录名称:
STARLINK-37680
国际标识:
2026-117C
轨道中心:
EARTH
卫星名称:
星链-37680
卫星全名:
星链-37680(STARLINK-37680)
卫星状态:
在轨 (已飞行99 天)
发射日期:
2026-05-29 UTC
国别 :
美国 (US)
星等 :
--
轨道信息
数据来源 国际轨道数据 AOE轨道数据
星历时间 2026-09-05T12:12:52+0800
5小时前
查看轨道信息
2026-09-03T23:00:00+0800
1天前
查看轨道信息
半长轴 6840.735km 6840.863km
偏心率 0.0001463 0.0001218
轨道倾角 53.156° 53.157°
近地点辐角 90.784° 84.389°
升交点赤经 225.434° 232.681°
平近点角 269.334° 345.627°
近地点 461.597km 461.892km
远地点 463.599km 463.56km
周期 93.846分钟 93.848分钟
每日圈数 15.344357 15.343926
详细信息
固有亮度:
5
最大亮度:
2.5
卫星平台:
Starlink V1.0
覆盖范围:
全球
运营商:
太空探索技术公司
运营商所在国:
美国
制造商(研发单位):
太空探索技术公司
制造商所在国:
美国
使用方式:
暂无
卫星简介
Starlink 计划是 SpaceX 推出的全球卫星互联网项目,通过发射低轨道卫星,为全球尤其是偏远地区提供高速、低延迟的互联网服务。自 2019 年起,Starlink 已部署数千颗卫星,旨在缩小全球数字鸿沟,推动互联网普及。该项目还为军事、航空等行业提供通信支持,带来广泛经济效益。
2D轨道图
3D轨道图
轨道高度分析图
轨道倾角分析图
轨道综合分析图
查看轨道综合分析图
交会数据列表
事件ID 空间交会对象 最接近时刻(TCA) 交会距离 交会风险概率(CRP) 交会风险指数(CRI) 操作
CDM_260906-163906-028106-924021
2026-09-06T
16:39:33+0000
0.540 km
远距离
1.095485E-4 高风险 0.76
CDM_260907-024906-028106-924021
2026-09-07T
02:49:12+0000
0.658 km
远距离
6.328225E-5 中风险 0.71
CDM_260905-163905-256006-924022
2026-09-05T
16:39:50+0000
2.628 km
极远距离
1.433281E-6 低风险 0.38
CDM_260907-011506-028106-924021
2026-09-07T
01:15:25+0000
2.546 km
极远距离
1.112701E-6 低风险 0.36
CDM_260906-150506-028106-924021
2026-09-06T
15:05:46+0000
2.812 km
极远距离
9.626559E-7 极低风险 0.35
CDM_260906-181306-028106-924021
2026-09-06T
18:13:21+0000
2.879 km
极远距离
9.345665E-7 极低风险 0.34